"Sample Date","Sample Time","Sample Value","Units","Flow Rate","Sample Interval","Number Channels","Micron Size 0","Counts/Channel 0","Micron Size 1","Counts/Channel 1","Micron Size 2","Counts/Channel 2","Micron Size 3","Counts/Channel 3","Micron Size 4","Counts/Channel 4","Micron Size 5","Counts/Channel 5","Micron Size 6","Counts/Channel 6","Micron Size 7","Counts/Channel 7","Micron Size 8","Counts/Channel 8","Micron Size 9","Counts/Channel 9","Micron Size 10","Counts/Channel 10","Micron Size 11","Counts/Channel 11","Micron Size 12","Counts/Channel 12","Micron Size 13","Counts/Channel 13","Micron Size 14","Counts/Channel 14","Micron Size 15","Counts/Channel 15","Micron Size 16","Counts/Channel 16","Micron Size 17","Counts/Channel 17","Micron Size 18","Counts/Channel 18","Micron Size 19","Counts/Channel 19","Micron Size 20","Counts/Channel 20","Micron Size 21","Counts/Channel 21","Micron Size 22","Counts/Channel 22","Micron Size 23","Counts/Channel 23","Micron Size 24","Counts/Channel 24","Micron Size 25","Counts/Channel 25","Micron Size 26","Counts/Channel 26","Micron Size 27","Counts/Channel 27","Micron Size 28","Counts/Channel 28","Micron Size 29","Counts/Channel 29","Micron Size 30","Counts/Channel 30","Micron Size 31","Counts/Channel 31"
"04/05/08","18:00:00",2507.000,"cc",28315.746,6.00,6,0.100,1969.000,0.200,365.000,0.300,113.000,0.500,56.000,1.000,4.000,5.000,0
"04/05/08","18:00:06",2437.000,"cc",28349.365,6.00,6,0.100,1861.000,0.200,390.000,0.300,131.000,0.500,51.000,1.000,4.000,5.000,0
"04/05/08","18:00:12",2572.000,"cc",28313.922,6.00,6,0.100,1973.000,0.200,387.000,0.300,146.000,0.500,61.000,1.000,5.000,5.000,0
"04/05/08","18:00:18",2425.000,"cc",28272.949,6.00,6,0.100,1880.000,0.200,370.000,0.300,107.000,0.500,63.000,1.000,5.000,5.000,0
"04/05/08","18:00:24",2321.000,"cc",28301.248,6.00,6,0.100,1785.000,0.200,337.000,0.300,141.000,0.500,54.000,1.000,4.000,5.000,0
"04/05/08","18:00:30",2441.000,"cc",28292.020,6.00,6,0.100,1906.000,0.200,369.000,0.300,122.000,0.500,43.000,1.000,1.000,5.000,0
"04/05/08","18:00:36",2415.000,"cc",28310.936,6.00,6,0.100,1885.000,0.200,365.000,0.300,112.000,0.500,50.000,1.000,3.000,5.000,0
"04/05/08","18:00:42",2391.000,"cc",28296.736,6.00,6,0.100,1812.000,0.200,381.000,0.300,122.000,0.500,68.000,1.000,8.000,5.000,0
"04/05/08","18:00:48",2504.000,"cc",28373.988,6.00,6,0.100,1930.000,0.200,414.000,0.300,101.000,0.500,55.000,1.000,4.000,5.000,0
"04/05/08","18:00:54",2419.000,"cc",28356.598,6.00,6,0.100,1867.000,0.200,359.000,0.300,129.000,0.500,57.000,1.000,7.000,5.000,0
"04/05/08","18:01:00",2445.000,"cc",28294.373,6.00,6,0.100,1934.000,0.200,381.000,0.300,92.000,0.500,35.000,1.000,3.000,5.000,0
"04/05/08","18:01:06",2508.000,"cc",28266.273,6.00,6,0.100,1904.000,0.200,383.000,0.300,145.000,0.500,69.000,1.000,7.000,5.000,0
"04/05/08","18:01:12",2526.000,"cc",28326.873,6.00,6,0.100,1927.000,0.200,377.000,0.300,146.000,0.500,68.000,1.000,8.000,5.000,0
"04/05/08","18:01:18",2445.000,"cc",28295.740,6.00,6,0.100,1901.000,0.200,350.000,0.300,120.000,0.500,65.000,1.000,9.000,5.000,0
"04/05/08","18:01:24",2491.000,"cc",28328.262,6.00,6,0.100,1919.000,0.200,394.000,0.300,128.000,0.500,48.000,1.000,2.000,5.000,0
"04/05/08","18:01:30",2494.000,"cc",28337.891,6.00,6,0.100,1925.000,0.200,393.000,0.300,114.000,0.500,58.000,1.000,4.000,5.000,0
"04/05/08","18:01:36",2430.000,"cc",28308.191,6.00,6,0.100,1887.000,0.200,358.000,0.300,130.000,0.500,52.000,1.000,3.000,5.000,0
"04/05/08","18:01:42",2302.000,"cc",28283.900,6.00,6,0.100,1765.000,0.200,342.000,0.300,125.000,0.500,65.000,1.000,5.000,5.000,0
"04/05/08","18:01:48",2459.000,"cc",28331.611,6.00,6,0.100,1900.000,0.200,377.000,0.300,121.000,0.500,59.000,1.000,2.000,5.000,0
"04/05/08","18:01:54",2427.000,"cc",28333.350,6.00,6,0.100,1831.000,0.200,377.000,0.300,144.000,0.500,62.000,1.000,13.000,5.000,0
"04/05/08","18:02:00",2430.000,"cc",28329.822,6.00,6,0.100,1878.000,0.200,381.000,0.300,110.000,0.500,56.000,1.000,5.000,5.000,0
"04/05/08","18:02:06",2374.000,"cc",28375.420,6.00,6,0.100,1819.000,0.200,365.000,0.300,119.000,0.500,67.000,1.000,4.000,5.000,0
"04/05/08","18:02:12",2405.000,"cc",28305.809,6.00,6,0.100,1827.000,0.200,397.000,0.300,119.000,0.500,57.000,1.000,5.000,5.000,0
"04/05/08","18:02:18",2410.000,"cc",28317.928,6.00,6,0.100,1879.000,0.200,366.000,0.300,110.000,0.500,51.000,1.000,4.000,5.000,0
"04/05/08","18:02:24",2429.000,"cc",28317.477,6.00,6,0.100,1863.000,0.200,394.000,0.300,113.000,0.500,53.000,1.000,6.000,5.000,0
"04/05/08","18:02:30",2450.000,"cc",28328.266,6.00,6,0.100,1905.000,0.200,368.000,0.300,127.000,0.500,49.000,1.000,1.000,5.000,0
"04/05/08","18:02:36",2449.000,"cc",28246.783,6.00,6,0.100,1897.000,0.200,408.000,0.300,88.000,0.500,53.000,1.000,3.000,5.000,0
"04/05/08","18:02:42",2476.000,"cc",28261.748,6.00,6,0.100,1901.000,0.200,380.000,0.300,126.000,0.500,65.000,1.000,4.000,5.000,0
"04/05/08","18:02:48",2410.000,"cc",28300.545,6.00,6,0.100,1882.000,0.200,350.000,0.300,116.000,0.500,59.000,1.000,3.000,5.000,0
"04/05/08","18:02:54",2266.000,"cc",28298.848,6.00,6,0.100,1781.000,0.200,333.000,0.300,97.000,0.500,49.000,1.000,6.000,5.000,0
"04/05/08","18:03:00",2354.000,"cc",28390.580,6.00,6,0.100,1817.000,0.200,384.000,0.300,101.000,0.500,47.000,1.000,5.000,5.000,0
"04/05/08","18:03:06",2277.000,"cc",28336.014,6.00,6,0.100,1751.000,0.200,359.000,0.300,107.000,0.500,56.000,1.000,4.000,5.000,0
"04/05/08","18:03:12",2464.000,"cc",28280.621,6.00,6,0.100,1908.000,0.200,389.000,0.300,103.000,0.500,62.000,1.000,2.000,5.000,0
"04/05/08","18:03:18",2463.000,"cc",28354.129,6.00,6,0.100,1870.000,0.200,391.000,0.300,139.000,0.500,55.000,1.000,8.000,5.000,0
"04/05/08","18:03:24",2539.000,"cc",28307.416,6.00,6,0.100,1934.000,0.200,390.000,0.300,150.000,0.500,61.000,1.000,4.000,5.000,0
"04/05/08","18:03:30",2474.000,"cc",28324.990,6.00,6,0.100,1865.000,0.200,403.000,0.300,128.000,0.500,73.000,1.000,5.000,5.000,0
"04/05/08","18:03:36",2490.000,"cc",28279.131,6.00,6,0.100,1908.000,0.200,397.000,0.300,112.000,0.500,64.000,1.000,9.000,5.000,0
"04/05/08","18:03:42",2453.000,"cc",28293.270,6.00,6,0.100,1886.000,0.200,376.000,0.300,118.000,0.500,61.000,1.000,12.000,5.000,0
"04/05/08","18:03:48",2436.000,"cc",28382.967,6.00,6,0.100,1873.000,0.200,383.000,0.300,111.000,0.500,61.000,1.000,8.000,5.000,0
"04/05/08","18:03:54",2465.000,"cc",28348.229,6.00,6,0.100,1874.000,0.200,375.000,0.300,143.000,0.500,62.000,1.000,11.000,5.000,0
"04/05/08","18:04:00",2483.000,"cc",28320.838,6.00,6,0.100,1889.000,0.200,400.000,0.300,125.000,0.500,63.000,1.000,6.000,5.000,0
"04/05/08","18:04:06",2465.000,"cc",28300.176,6.00,6,0.100,1888.000,0.200,386.000,0.300,118.000,0.500,66.000,1.000,7.000,5.000,0
"04/05/08","18:04:12",2459.000,"cc",28324.063,6.00,6,0.100,1847.000,0.200,423.000,0.300,126.000,0.500,57.000,1.000,6.000,5.000,0
"04/05/08","18:04:18",2566.000,"cc",28294.297,6.00,6,0.100,1930.000,0.200,422.000,0.300,129.000,0.500,75.000,1.000,10.000,5.000,0
"04/05/08","18:04:24",2584.000,"cc",28356.764,6.00,6,0.100,1936.000,0.200,427.000,0.300,143.000,0.500,74.000,1.000,4.000,5.000,0
"04/05/08","18:04:30",2487.000,"cc",28309.203,6.00,6,0.100,1876.000,0.200,411.000,0.300,135.000,0.500,57.000,1.000,8.000,5.000,0
"04/05/08","18:04:36",2557.000,"cc",28303.623,6.00,6,0.100,1899.000,0.200,423.000,0.300,148.000,0.500,75.000,1.000,12.000,5.000,0
"04/05/08","18:04:42",2559.000,"cc",28292.207,6.00,6,0.100,1918.000,0.200,389.000,0.300,160.000,0.500,85.000,1.000,7.000,5.000,0
"04/05/08","18:04:48",2542.000,"cc",28234.838,6.00,6,0.100,1888.000,0.200,422.000,0.300,148.000,0.500,78.000,1.000,6.000,5.000,0
"04/05/08","18:04:54",2511.000,"cc",28330.533,6.00,6,0.100,1841.000,0.200,441.000,0.300,143.000,0.500,80.000,1.000,6.000,5.000,0
"04/05/08","18:05:00",2581.000,"cc",28356.357,6.00,6,0.100,1943.000,0.200,393.000,0.300,158.000,0.500,77.000,1.000,10.000,5.000,0
"04/05/08","18:05:06",2601.000,"cc",28270.223,6.00,6,0.100,1934.000,0.200,410.000,0.300,149.000,0.500,97.000,1.000,11.000,5.000,0
"04/05/08","18:05:12",2675.000,"cc",28319.979,6.00,6,0.100,1991.000,0.200,445.000,0.300,147.000,0.500,82.000,1.000,10.000,5.000,0
"04/05/08","18:05:18",2617.000,"cc",28336.775,6.00,6,0.100,1931.000,0.200,462.000,0.300,155.000,0.500,63.000,1.000,6.000,5.000,0
"04/05/08","18:05:24",2555.000,"cc",28360.719,6.00,6,0.100,1876.000,0.200,440.000,0.300,167.000,0.500,62.000,1.000,10.000,5.000,0
"04/05/08","18:05:30",2539.000,"cc",28280.797,6.00,6,0.100,1911.000,0.200,394.000,0.300,143.000,0.500,77.000,1.000,14.000,5.000,0
"04/05/08","18:05:36",2598.000,"cc",28332.699,6.00,6,0.100,1923.000,0.200,435.000,0.300,138.000,0.500,87.000,1.000,15.000,5.000,0
"04/05/08","18:05:42",2676.000,"cc",28356.166,6.00,6,0.100,1989.000,0.200,419.000,0.300,152.000,0.500,105.000,1.000,11.000,5.000,0
"04/05/08","18:05:48",2662.000,"cc",28310.707,6.00,6,0.100,1951.000,0.200,453.000,0.300,168.000,0.500,82.000,1.000,8.000,5.000,0
"04/05/08","18:05:54",2623.000,"cc",28277.135,6.00,6,0.100,1891.000,0.200,483.000,0.300,146.000,0.500,90.000,1.000,13.000,5.000,0
"04/05/08","18:06:00",2638.000,"cc",28327.627,6.00,6,0.100,1903.000,0.200,432.000,0.300,197.000,0.500,89.000,1.000,17.000,5.000,0
"04/05/08","18:06:06",2590.000,"cc",28272.527,6.00,6,0.100,1943.000,0.200,417.000,0.300,145.000,0.500,77.000,1.000,8.000,5.000,0
"04/05/08","18:06:12",2583.000,"cc",28354.639,6.00,6,0.100,1889.000,0.200,453.000,0.300,150.000,0.500,82.000,1.000,9.000,5.000,0
"04/05/08","18:06:18",2747.000,"cc",28283.250,6.00,6,0.100,2048.000,0.200,458.000,0.300,151.000,0.500,83.000,1.000,7.000,5.000,0
"04/05/08","18:06:24",2583.000,"cc",28293.231,6.00,6,0.100,1941.000,0.200,413.000,0.300,141.000,0.500,81.000,1.000,7.000,5.000,0
"04/05/08","18:06:30",2573.000,"cc",28366.373,6.00,6,0.100,1933.000,0.200,430.000,0.300,134.000,0.500,71.000,1.000,5.000,5.000,0
"04/05/08","18:06:36",2531.000,"cc",28398.885,6.00,6,0.100,1899.000,0.200,379.000,0.300,168.000,0.500,75.000,1.000,10.000,5.000,0
"04/05/08","18:06:42",2599.000,"cc",28264.160,6.00,6,0.100,1919.000,0.200,436.000,0.300,171.000,0.500,66.000,1.000,7.000,5.000,0
"04/05/08","18:06:48",2689.000,"cc",28277.406,6.00,6,0.100,1993.000,0.200,455.000,0.300,153.000,0.500,78.000,1.000,10.000,5.000,0
"04/05/08","18:06:54",2574.000,"cc",28298.910,6.00,6,0.100,1907.000,0.200,429.000,0.300,159.000,0.500,72.000,1.000,7.000,5.000,0
"04/05/08","18:07:00",2604.000,"cc",28306.732,6.00,6,0.100,1927.000,0.200,445.000,0.300,139.000,0.500,79.000,1.000,14.000,5.000,0
"04/05/08","18:07:06",2687.000,"cc",28334.977,6.00,6,0.100,1976.000,0.200,410.000,0.300,183.000,0.500,102.000,1.000,16.000,5.000,0
"04/05/08","18:07:12",2732.000,"cc",28325.859,6.00,6,0.100,1990.000,0.200,495.000,0.300,167.000,0.500,79.000,1.000,1.000,5.000,0
"04/05/08","18:07:18",2685.000,"cc",28361.664,6.00,6,0.100,1971.000,0.200,434.000,0.300,183.000,0.500,89.000,1.000,8.000,5.000,0
"04/05/08","18:07:24",2516.000,"cc",28313.455,6.00,6,0.100,1875.000,0.200,413.000,0.300,145.000,0.500,76.000,1.000,7.000,5.000,0
"04/05/08","18:07:30",2641.000,"cc",28281.313,6.00,6,0.100,1951.000,0.200,434.000,0.300,166.000,0.500,80.000,1.000,10.000,5.000,0
"04/05/08","18:07:36",2651.000,"cc",28299.449,6.00,6,0.100,1953.000,0.200,441.000,0.300,164.000,0.500,84.000,1.000,9.000,5.000,0
"04/05/08","18:07:42",2702.000,"cc",28338.846,6.00,6,0.100,1972.000,0.200,452.000,0.300,187.000,0.500,84.000,1.000,7.000,5.000,0
"04/05/08","18:07:48",2790.000,"cc",28300.332,6.00,6,0.100,2066.000,0.200,475.000,0.300,158.000,0.500,80.000,1.000,11.000,5.000,0
"04/05/08","18:07:54",2769.000,"cc",28381.266,6.00,6,0.100,1998.000,0.200,477.000,0.300,183.000,0.500,104.000,1.000,7.000,5.000,0
"04/05/08","18:08:00",2751.000,"cc",28340.902,6.00,6,0.100,2003.000,0.200,443.000,0.300,183.000,0.500,109.000,1.000,13.000,5.000,0
"04/05/08","18:08:06",2777.000,"cc",28290.293,6.00,6,0.100,2040.000,0.200,478.000,0.300,157.000,0.500,89.000,1.000,13.000,5.000,0
"04/05/08","18:08:12",2713.000,"cc",28235.635,6.00,6,0.100,2006.000,0.200,439.000,0.300,154.000,0.500,99.000,1.000,15.000,5.000,0
"04/05/08","18:08:18",2781.000,"cc",28364.244,6.00,6,0.100,2093.000,0.200,420.000,0.300,163.000,0.500,95.000,1.000,10.000,5.000,0
"04/05/08","18:08:24",2686.000,"cc",28268.406,6.00,6,0.100,1958.000,0.200,438.000,0.300,176.000,0.500,108.000,1.000,6.000,5.000,0
"04/05/08","18:08:30",2681.000,"cc",28296.842,6.00,6,0.100,2007.000,0.200,409.000,0.300,178.000,0.500,81.000,1.000,6.000,5.000,0
"04/05/08","18:08:36",2760.000,"cc",28333.240,6.00,6,0.100,1999.000,0.200,462.000,0.300,200.000,0.500,93.000,1.000,6.000,5.000,0
"04/05/08","18:08:42",2861.000,"cc",28298.432,6.00,6,0.100,2055.000,0.200,493.000,0.300,195.000,0.500,106.000,1.000,12.000,5.000,0
"04/05/08","18:08:48",2701.000,"cc",28372.674,6.00,6,0.100,1966.000,0.200,447.000,0.300,188.000,0.500,95.000,1.000,5.000,5.000,0
"04/05/08","18:08:54",2822.000,"cc",28319.727,6.00,6,0.100,2062.000,0.200,471.000,0.300,188.000,0.500,92.000,1.000,9.000,5.000,0
"04/05/08","18:09:00",2809.000,"cc",28373.438,6.00,6,0.100,2039.000,0.200,468.000,0.300,181.000,0.500,107.000,1.000,14.000,5.000,0
"04/05/08","18:09:06",2895.000,"cc",28325.586,6.00,6,0.100,2100.000,0.200,478.000,0.300,189.000,0.500,111.000,1.000,17.000,5.000,0
"04/05/08","18:09:12",2789.000,"cc",28267.357,6.00,6,0.100,1985.000,0.200,508.000,0.300,186.000,0.500,102.000,1.000,8.000,5.000,0
"04/05/08","18:09:18",2672.000,"cc",28311.910,6.00,6,0.100,1906.000,0.200,495.000,0.300,167.000,0.500,90.000,1.000,14.000,5.000,0
"04/05/08","18:09:24",2829.000,"cc",28348.387,6.00,6,0.100,2074.000,0.200,472.000,0.300,163.000,0.500,101.000,1.000,19.000,5.000,0
"04/05/08","18:09:30",2773.000,"cc",28316.791,6.00,6,0.100,1984.000,0.200,496.000,0.300,179.000,0.500,100.000,1.000,14.000,5.000,0
"04/05/08","18:09:36",2821.000,"cc",28277.731,6.00,6,0.100,2079.000,0.200,461.000,0.300,161.000,0.500,111.000,1.000,9.000,5.000,0
"04/05/08","18:09:42",2850.000,"cc",28302.565,6.00,6,0.100,2062.000,0.200,491.000,0.300,200.000,0.500,90.000,1.000,7.000,5.000,0
"04/05/08","18:09:48",2706.000,"cc",28314.596,6.00,6,0.100,1958.000,0.200,465.000,0.300,195.000,0.500,79.000,1.000,9.000,5.000,0
"04/05/08","18:09:54",2810.000,"cc",28309.594,6.00,6,0.100,2029.000,0.200,487.000,0.300,189.000,0.500,94.000,1.000,11.000,5.000,0
"04/05/08","18:10:00",2813.000,"cc",28351.846,6.00,6,0.100,2042.000,0.200,486.000,0.300,170.000,0.500,101.000,1.000,14.000,5.000,0
"04/05/08","18:10:06",2803.000,"cc",28349.033,6.00,6,0.100,2076.000,0.200,457.000,0.300,176.000,0.500,83.000,1.000,11.000,5.000,0
"04/05/08","18:10:12",2752.000,"cc",28324.256,6.00,6,0.100,2017.000,0.200,442.000,0.300,169.000,0.500,109.000,1.000,15.000,5.000,0
"04/05/08","18:10:18",2744.000,"cc",28328.377,6.00,6,0.100,1992.000,0.200,478.000,0.300,181.000,0.500,84.000,1.000,9.000,5.000,0
"04/05/08","18:10:24",2775.000,"cc",28267.217,6.00,6,0.100,2028.000,0.200,465.000,0.300,177.000,0.500,98.000,1.000,7.000,5.000,0
"04/05/08","18:10:30",2916.000,"cc",28302.311,6.00,6,0.100,2086.000,0.200,514.000,0.300,195.000,0.500,109.000,1.000,12.000,5.000,0
"04/05/08","18:10:36",2840.000,"cc",28361.088,6.00,6,0.100,2027.000,0.200,517.000,0.300,187.000,0.500,97.000,1.000,12.000,5.000,0
"04/05/08","18:10:42",2860.000,"cc",28334.922,6.00,6,0.100,2068.000,0.200,504.000,0.300,176.000,0.500,100.000,1.000,12.000,5.000,0
"04/05/08","18:10:48",2807.000,"cc",28291.830,6.00,6,0.100,2038.000,0.200,474.000,0.300,188.000,0.500,99.000,1.000,8.000,5.000,0
"04/05/08","18:10:54",2734.000,"cc",28250.629,6.00,6,0.100,1964.000,0.200,471.000,0.300,184.000,0.500,102.000,1.000,13.000,5.000,0
"04/05/08","18:11:00",2956.000,"cc",28420.428,6.00,6,0.100,2156.000,0.200,474.000,0.300,192.000,0.500,121.000,1.000,13.000,5.000,0
"04/05/08","18:11:06",2809.000,"cc",28291.082,6.00,6,0.100,2042.000,0.200,475.000,0.300,188.000,0.500,95.000,1.000,9.000,5.000,0
"04/05/08","18:11:12",2816.000,"cc",28290.709,6.00,6,0.100,2015.000,0.200,481.000,0.300,203.000,0.500,108.000,1.000,9.000,5.000,0
"04/05/08","18:11:18",2759.000,"cc",28329.900,6.00,6,0.100,1969.000,0.200,469.000,0.300,195.000,0.500,104.000,1.000,22.000,5.000,0
"04/05/08","18:11:24",2870.000,"cc",28307.650,6.00,6,0.100,2044.000,0.200,496.000,0.300,211.000,0.500,107.000,1.000,12.000,5.000,0
"04/05/08","18:11:30",2804.000,"cc",28318.377,6.00,6,0.100,2073.000,0.200,435.000,0.300,168.000,0.500,115.000,1.000,13.000,5.000,0
"04/05/08","18:11:36",2888.000,"cc",28317.830,6.00,6,0.100,2053.000,0.200,483.000,0.300,205.000,0.500,133.000,1.000,14.000,5.000,0
"04/05/08","18:11:42",2847.000,"cc",28346.441,6.00,6,0.100,2029.000,0.200,466.000,0.300,200.000,0.500,136.000,1.000,16.000,5.000,0
"04/05/08","18:11:48",2787.000,"cc",28289.676,6.00,6,0.100,1975.000,0.200,501.000,0.300,184.000,0.500,112.000,1.000,15.000,5.000,0
"04/05/08","18:11:54",2881.000,"cc",28294.527,6.00,6,0.100,2036.000,0.200,500.000,0.300,211.000,0.500,121.000,1.000,13.000,5.000,0
"04/05/08","18:12:00",2879.000,"cc",28323.963,6.00,6,0.100,2034.000,0.200,495.000,0.300,197.000,0.500,136.000,1.000,17.000,5.000,0
"04/05/08","18:12:06",2801.000,"cc",28330.371,6.00,6,0.100,2047.000,0.200,458.000,0.300,184.000,0.500,97.000,1.000,15.000,5.000,0
"04/05/08","18:12:12",2876.000,"cc",28323.916,6.00,6,0.100,2059.000,0.200,477.000,0.300,192.000,0.500,127.000,1.000,21.000,5.000,0
"04/05/08","18:12:18",2830.000,"cc",28338.063,6.00,6,0.100,2003.000,0.200,481.000,0.300,207.000,0.500,127.000,1.000,12.000,5.000,0
"04/05/08","18:12:24",2759.000,"cc",28305.582,6.00,6,0.100,1981.000,0.200,450.000,0.300,189.000,0.500,122.000,1.000,17.000,5.000,0
"04/05/08","18:12:30",2799.000,"cc",28356.766,6.00,6,0.100,1978.000,0.200,478.000,0.300,206.000,0.500,119.000,1.000,18.000,5.000,0
"04/05/08","18:12:36",2819.000,"cc",28280.074,6.00,6,0.100,2039.000,0.200,468.000,0.300,199.000,0.500,102.000,1.000,11.000,5.000,0
"04/05/08","18:12:42",2709.000,"cc",28271.443,6.00,6,0.100,2002.000,0.200,399.000,0.300,179.000,0.500,116.000,1.000,13.000,5.000,0
"04/05/08","18:12:48",2857.000,"cc",28318.174,6.00,6,0.100,1980.000,0.200,500.000,0.300,215.000,0.500,144.000,1.000,18.000,5.000,0
"04/05/08","18:12:54",2802.000,"cc",28337.680,6.00,6,0.100,1994.000,0.200,465.000,0.300,208.000,0.500,119.000,1.000,16.000,5.000,0
"04/05/08","18:13:00",2906.000,"cc",28336.236,6.00,6,0.100,2046.000,0.200,493.000,0.300,207.000,0.500,140.000,1.000,20.000,5.000,0
"04/05/08","18:13:06",2851.000,"cc",28256.699,6.00,6,0.100,2048.000,0.200,457.000,0.300,194.000,0.500,132.000,1.000,20.000,5.000,0
"04/05/08","18:13:12",2880.000,"cc",28323.598,6.00,6,0.100,2042.000,0.200,481.000,0.300,214.000,0.500,124.000,1.000,19.000,5.000,0
"04/05/08","18:13:18",2890.000,"cc",28363.594,6.00,6,0.100,2071.000,0.200,465.000,0.300,199.000,0.500,140.000,1.000,15.000,5.000,0
"04/05/08","18:13:24",3021.000,"cc",28302.119,6.00,6,0.100,2178.000,0.200,447.000,0.300,218.000,0.500,143.000,1.000,35.000,5.000,0
"04/05/08","18:13:30",2771.000,"cc",28343.680,6.00,6,0.100,1952.000,0.200,486.000,0.300,201.000,0.500,118.000,1.000,14.000,5.000,0
"04/05/08","18:13:36",2830.000,"cc",28323.207,6.00,6,0.100,2036.000,0.200,431.000,0.300,214.000,0.500,134.000,1.000,15.000,5.000,0
"04/05/08","18:13:42",3050.000,"cc",28309.686,6.00,6,0.100,2191.000,0.200,509.000,0.300,196.000,0.500,139.000,1.000,15.000,5.000,0
"04/05/08","18:13:48",2686.000,"cc",28189.941,6.00,6,0.100,1939.000,0.200,413.000,0.300,203.000,0.500,115.000,1.000,16.000,5.000,0
"04/05/08","18:13:54",2896.000,"cc",28373.881,6.00,6,0.100,2129.000,0.200,453.000,0.300,179.000,0.500,119.000,1.000,16.000,5.000,0
"04/05/08","18:14:00",2931.000,"cc",28390.639,6.00,6,0.100,2130.000,0.200,493.000,0.300,158.000,0.500,135.000,1.000,15.000,5.000,0
"04/05/08","18:14:06",2799.000,"cc",28232.592,6.00,6,0.100,1980.000,0.200,452.000,0.300,191.000,0.500,157.000,1.000,19.000,5.000,0
"04/05/08","18:14:12",2952.000,"cc",28292.045,6.00,6,0.100,2066.000,0.200,490.000,0.300,220.000,0.500,152.000,1.000,24.000,5.000,0
"04/05/08","18:14:18",2904.000,"cc",28369.551,6.00,6,0.100,2052.000,0.200,474.000,0.300,200.000,0.500,154.000,1.000,24.000,5.000,0
"04/05/08","18:14:24",2934.000,"cc",28350.301,6.00,6,0.100,2153.000,0.200,418.000,0.300,206.000,0.500,137.000,1.000,20.000,5.000,0
"04/05/08","18:14:30",2992.000,"cc",28300.898,6.00,6,0.100,2145.000,0.200,473.000,0.300,225.000,0.500,129.000,1.000,20.000,5.000,0
"04/05/08","18:14:36",2987.000,"cc",28336.889,6.00,6,0.100,2104.000,0.200,495.000,0.300,229.000,0.500,142.000,1.000,17.000,5.000,0
"04/05/08","18:14:42",2932.000,"cc",28333.014,6.00,6,0.100,2103.000,0.200,478.000,0.300,200.000,0.500,136.000,1.000,15.000,5.000,0
"04/05/08","18:14:48",2868.000,"cc",28295.563,6.00,6,0.100,2070.000,0.200,449.000,0.300,200.000,0.500,124.000,1.000,25.000,5.000,0
"04/05/08","18:14:54",2851.000,"cc",28359.059,6.00,6,0.100,2061.000,0.200,433.000,0.300,209.000,0.500,133.000,1.000,15.000,5.000,0
"04/05/08","18:15:00",2921.000,"cc",28289.190,6.00,6,0.100,2088.000,0.200,483.000,0.300,205.000,0.500,129.000,1.000,16.000,5.000,0
"04/05/08","18:15:06",2799.000,"cc",28280.117,6.00,6,0.100,2035.000,0.200,439.000,0.300,177.000,0.500,139.000,1.000,9.000,5.000,0
"04/05/08","18:15:12",2830.000,"cc",28294.766,6.00,6,0.100,2056.000,0.200,463.000,0.300,184.000,0.500,114.000,1.000,13.000,5.000,0
"04/05/08","18:15:18",2746.000,"cc",28339.756,6.00,6,0.100,1990.000,0.200,397.000,0.300,201.000,0.500,139.000,1.000,19.000,5.000,0
"04/05/08","18:15:24",2812.000,"cc",28330.162,6.00,6,0.100,2045.000,0.200,438.000,0.300,189.000,0.500,120.000,1.000,20.000,5.000,0
"04/05/08","18:15:30",2809.000,"cc",28288.412,6.00,6,0.100,2045.000,0.200,419.000,0.300,201.000,0.500,126.000,1.000,18.000,5.000,0
"04/05/08","18:15:36",2869.000,"cc",28367.225,6.00,6,0.100,2080.000,0.200,462.000,0.300,197.000,0.500,116.000,1.000,14.000,5.000,0
"04/05/08","18:15:42",2928.000,"cc",28311.000,6.00,6,0.100,2119.000,0.200,441.000,0.300,209.000,0.500,136.000,1.000,23.000,5.000,0
"04/05/08","18:15:48",2881.000,"cc",28302.779,6.00,6,0.100,2055.000,0.200,448.000,0.300,228.000,0.500,128.000,1.000,22.000,5.000,0
"04/05/08","18:15:54",2899.000,"cc",28308.574,6.00,6,0.100,2066.000,0.200,478.000,0.300,206.000,0.500,129.000,1.000,20.000,5.000,0
"04/05/08","18:16:00",2893.000,"cc",28360.465,6.00,6,0.100,2075.000,0.200,432.000,0.300,230.000,0.500,140.000,1.000,16.000,5.000,0
"04/05/08","18:16:06",2867.000,"cc",28280.449,6.00,6,0.100,2047.000,0.200,443.000,0.300,220.000,0.500,141.000,1.000,16.000,5.000,0
"04/05/08","18:16:12",2766.000,"cc",28316.176,6.00,6,0.100,1999.000,0.200,422.000,0.300,200.000,0.500,131.000,1.000,14.000,5.000,0
"04/05/08","18:16:18",2945.000,"cc",28239.861,6.00,6,0.100,2147.000,0.200,425.000,0.300,200.000,0.500,149.000,1.000,24.000,5.000,0
"04/05/08","18:16:24",2892.000,"cc",28359.871,6.00,6,0.100,2134.000,0.200,428.000,0.300,177.000,0.500,127.000,1.000,26.000,5.000,0
"04/05/08","18:16:30",2860.000,"cc",28308.822,6.00,6,0.100,2099.000,0.200,406.000,0.300,192.000,0.500,148.000,1.000,15.000,5.000,0
"04/05/08","18:16:36",2956.000,"cc",28381.195,6.00,6,0.100,2132.000,0.200,448.000,0.300,221.000,0.500,136.000,1.000,19.000,5.000,0
"04/05/08","18:16:42",2808.000,"cc",28312.231,6.00,6,0.100,2010.000,0.200,444.000,0.300,199.000,0.500,135.000,1.000,20.000,5.000,0
"04/05/08","18:16:48",2805.000,"cc",28321.840,6.00,6,0.100,2012.000,0.200,434.000,0.300,204.000,0.500,134.000,1.000,21.000,5.000,0
"04/05/08","18:16:54",2813.000,"cc",28291.123,6.00,6,0.100,2074.000,0.200,406.000,0.300,187.000,0.500,129.000,1.000,17.000,5.000,0
"04/05/08","18:17:00",2906.000,"cc",28282.338,6.00,6,0.100,2086.000,0.200,453.000,0.300,210.000,0.500,137.000,1.000,20.000,5.000,0
"04/05/08","18:17:06",3000.000,"cc",28326.143,6.00,6,0.100,2157.000,0.200,434.000,0.300,241.000,0.500,147.000,1.000,21.000,5.000,0
"04/05/08","18:17:12",2868.000,"cc",28282.865,6.00,6,0.100,2076.000,0.200,406.000,0.300,228.000,0.500,134.000,1.000,24.000,5.000,0